STARLINK-35310, 66183

Orbit data source: Space-Track

STARLINK-35310, 66183 is a payload satellite owned by SpaceX/Seattle (US) in LEO that was launched on Sun, 26 Oct 2025 UTC via an FALCON 9 launch vehicle from the Air Force Eastern Test Range (AFETR). Payload-class satellites include a variety of spacecraft equipped with specific instruments for various scientific and technological missions. These include communications satellites like Starlink; space stations such as the ISS; scientific satellites like the Hubble; Earth observation satellites from companies like Planet Labs, Umbra, and HawkEye 360; GPS; miniature CubeSats for education and research; and military/defense satellites.

Loading next visibility...
Identifier
66183, 2025-243G
Orbit
LEO
Country
Flag of USUS
Related business
Manufacturer
SpaceX/Seattle
Mission
Operational Commercial Communications
Bus & Motor
STARLINK V2MO, Unknown motor
Mass
575 kg wet, ~530 kg dry
Launch date (UTC)
2025-10-26 (8 months ago)
Launch vehicle
FALCON 9
Launch site
Air Force Eastern Test Range (AFETR)
Object type
Payload
Rocket body
Debris
Shape & HBR
Box + 2 Pan, 17.7 m
Radar Cross Section
36.964 m², Large (>1 m²)

Expand to show TLE details & history
Last TLE update: 14 hours ago

TLE from 14 hours ago
0 STARLINK-35310
1 66183U 25243G   26171.27653264  .00023949  00000-0  71756-3 0  9998
2 66183  53.1601 128.5116 0001141  93.9714 266.1419 15.34405703 36365
Epoch: 2026-06-20T06:38Z
TLE epoch observation values (Epoch: 2026-06-20T06:38:12.420Z)
Latitude
-0.00001°
Longitude
120.46637°
Altitude
463.64 km
Speed
7.636 km/s
True Right ascension
08h 34m 02s
True Declination
0° 00' 00"
Sunlit
Object was in daylight at epoch
Visualization orbit readout
Latitude
Unknown
Longitude
Unknown
Altitude
Unknown
Speed
Unknown
Apparent Right ascension
Unknown
Apparent Declination
Unknown
Sunlit
N/A
Visualization observer readout
Local Sidereal Time
07:24:07
Azimuth
Unknown
Elevation
Unknown
Doppler factor
Unknown
Orbital elements
Apogee altitude
463.724 km
Perigee altitude
462.163 km
Semi-major axis
6,841.08 km
Eccentricity
0.00011
Inclination
53.1601°
RAAN
128.5116°
Arg. of periapsis
93.9714°
True anomaly
266.12885°
Mean anomaly
266.1419°
Eccentric anomaly
266.13538°
Mean motion
3.8358 °/min
Orbital period
93.85 mins
BSTAR
0.00071756
Loading maneuver chart data...
Computing Atmospheric mass density...
Loading historical data...
Loading historical data...
Loading historical data...
Loading historical data...
Loading historical data...
Loading historical data...
Loading historical data...

Documentation

Showing up to 5 results
|